DELTA 1 DEB, 7195

Orbit data source: Space-Track

DELTA 1 DEB, 7195 is space debris in LEO originally from a launch on Tue, 06 Nov 1973 UTC launched from the Air Force Western Test Range (AFWTR). Debris objects in space refer to the collection of defunct objects orbiting the Earth. Examples of debris include non-operational satellites, rocket bodies, and fragments generated from explosions, collisions, or faulty payload assembly.

Loading next visibility...
Identifier
7195, 1973-086FD
Orbit
LEO
Country
Flag of USUS
Related business
Manufacturer
Unknown
Mission
Spacecraft
Bus & Motor
Unknown
Mass
Unknown
Launch date (UTC)
1973-11-06 (52 years ago)
Launch vehicle
Unknown
Launch site
Air Force Western Test Range (AFWTR)
Object type
Payload
Rocket body
Debris
Shape & HBR
Unknown shape, 0.1 m
Radar Cross Section
Small (<0.1 m²)

Expand to show TLE details & history
Last TLE update: 18 hours ago

TLE from 18 hours ago
0 DELTA 1 DEB
1 07195U 73086FD  26033.31120480  .00001354  00000-0  15783-2 0  9998
2 07195 103.1724 314.4451 0302670 283.0449  73.7053 13.53779707536314
Epoch: 2026-02-02T07:28Z
TLE epoch observation values (Epoch: 2026-02-02T07:28:08.094Z)
Latitude
0.00001°
Longitude
69.90306°
Altitude
1,004.23 km
Speed
7.378 km/s
True Right ascension
20h 57m 46s
True Declination
0° 00' 00"
Sunlit
Object was in daylight at epoch
Visualization orbit readout
Latitude
Unknown
Longitude
Unknown
Altitude
Unknown
Speed
Unknown
Apparent Right ascension
Unknown
Apparent Declination
Unknown
Sunlit
N/A
Visualization observer readout
Local Sidereal Time
03:36:05
Azimuth
Unknown
Elevation
Unknown
Doppler factor
Unknown
Orbital elements
Apogee altitude
1,280.892 km
Perigee altitude
830.881 km
Semi-major axis
7,434.023 km
Eccentricity
0.03027
Inclination
103.1724°
RAAN
314.4451°
Arg. of periapsis
283.0449°
True anomaly
77.06809°
Mean anomaly
73.7053°
Eccentric anomaly
75.38335°
Mean motion
3.38616 °/min
Orbital period
106.32 mins
BSTAR
0.0015783
Loading maneuver chart data...
Computing Atmospheric mass density...
Loading historical data...
Loading historical data...
Loading historical data...
Loading historical data...
Loading historical data...
Loading historical data...
Loading historical data...

Documentation

Showing up to 5 results
|